COSMOS 2461 (735)

Last updated on Oct. 24, 2020, 5:55 a.m. UTC

1 36401U 10007B   20297.58100395 -.00000090  00000-0  00000-0 0  9993
2 36401  65.9115  23.5809 0017727   7.6129 254.5288  2.13103700 82864
UTC
Height (km)
Latitude
Longitude
Inclination
Orbital Period
UTC large
Height (km)
Speed (km/s)
/
Latitude / Longitude
Inclination (degrees)
Orbital Period (minutes)
Azimuth
Elevation
Range (km)
Doppler Factor
iOS Compass Heading
iOS Angle

Next 30 passes for location: Hong Kong

Rise time Rise Azimuth (degrees) Set time Set Azimuth (degrees) Duration Max altitude (degrees)

No matching passes for this satellites